N5TM-4 Weather Reports


time (UTC)temp
C
wind
direction
speed
KPH
gust
KPH
rain 1hr
cm
rain 24hr
cm
rain mn
cm
humidity
%
barometer
mb
20260502164033 22 313 8.0 27.4 0.00 6.05 0.03 46 1021.2
20260502163535 22 323 6.4 27.4 0.00 6.05 0.03 48 1021.1
20260502163031 22 315 9.7 27.4 0.00 6.05 0.03 49 1021.0
20260502162533 22 340 9.7 20.9 0.00 6.05 0.03 50 1021.1
20260502162030 21 86 4.8 24.1 0.00 6.05 0.03 51 1021.1
20260502161529 21 344 6.4 24.1 0.00 6.05 0.03 52 1021.1
20260502161028 21 344 9.7 20.9 0.00 6.05 0.03 51 1021.1
20260502160527 21 10 8.0 19.3 0.00 6.05 0.03 53 1021.1
20260502152027 19 338 8.0 20.9 0.00 6.20 0.03 60 1020.9
20260502151521 19 54 6.4 20.9 0.00 6.20 0.03 60 1021.0
20260502151020 19 36 9.7 22.5 0.00 6.20 0.03 60 1020.9
20260502150519 19 5 9.7 22.5 0.00 6.20 0.03 61 1021.0
20260502130553 13 351 8.0 16.1 0.00 6.76 0.00 86 1019.9
20260502123546 12 355 3.2 12.9 0.00 6.83 0.00 90 1019.4
20260502123046 12 333 4.8 12.9 0.00 6.83 0.00 91 1019.3
20260502122545 11 348 3.2 9.7 0.00 6.83 0.00 91 1019.3
20260502122044 11 5 4.8 14.5 0.00 6.83 0.00 91 1019.1
20260502121555 11 355 6.4 14.5 0.00 6.83 0.00 91 1019.1
20260502121043 11 342 4.8 9.7 0.00 6.83 0.00 90 1019.1
20260502120542 11 333 3.2 9.7 0.00 6.83 0.00 90 1019.0
20260502115544 11 331 3.2 9.7 0.00 6.83 0.00 90 1018.8
20260502115040 11 324 4.8 8.0 0.00 6.83 0.00 89 1018.8
20260502114540 11 343 1.6 6.4 0.00 6.83 0.00 89 1018.7
20260502114040 11 343 3.2 6.4 0.00 6.83 0.00 89 1018.8
20260502113539 11 348 1.6 6.4 0.00 6.83 0.00 89 1018.8
20260502113039 11 348 3.2 6.4 0.00 6.83 0.00 89 1018.8
20260502112538 11 5 1.6 6.4 0.00 6.83 0.00 89 1018.9
20260502112037 11 9 3.2 12.9 0.00 6.83 0.00 89 1018.7
20260502111537 11 5 3.2 12.9 0.00 6.83 0.00 89 1018.6
20260502111035 11 350 4.8 9.7 0.00 6.83 0.00 89 1018.5
20260502110533 11 19 1.6 9.7 0.00 6.83 0.00 88 1018.4
20260502110033 11 302 1.6 9.7 0.00 6.83 0.00 88 1018.3
20260502105533 11 346 3.2 9.7 0.00 6.93 0.00 88 1018.2
20260502105032 11 355 3.2 9.7 0.00 6.93 0.00 88 1018.2
20260502104540 11 323 4.8 14.5 0.00 6.93 0.00 88 1018.2
20260502104030 11 360 4.8 14.5 0.00 6.93 0.00 88 1018.1
20260502103530 11 355 3.2 9.7 0.00 6.93 0.00 88 1018.1
20260502103033 11 350 3.2 8.0 0.00 6.93 0.00 88 1018.1
20260502102528 11 12 3.2 8.0 0.00 6.93 0.00 87 1018.0
20260502102028 11 9 1.6 12.9 0.00 6.93 0.00 87 1017.9
20260502101527 11 82 4.8 12.9 0.00 6.93 0.00 87 1017.8
20260502101026 12 355 4.8 9.7 0.00 6.93 0.00 87 1017.7
20260502100526 12 355 1.6 6.4 0.00 6.93 0.00 86 1017.7
20260502091518 12 18 0.0 9.7 0.00 8.00 0.00 86 1016.6
20260502091017 12 23 3.2 12.9 0.00 8.00 0.00 86 1016.6
20260502090517 12 10 4.8 12.9 0.00 8.00 0.00 86 1016.6
20260502071511 12 360 6.4 16.1 0.00 8.97 0.00 90 1016.4
20260502071010 12 13 4.8 14.5 0.00 8.97 0.00 90 1016.4
20260502070509 12 355 6.4 14.5 0.00 8.97 0.00 91 1016.4
20260502070016 12 46 4.8 12.9 0.00 8.97 0.00 91 1016.5
20260502065510 12 337 3.2 16.1 0.00 9.19 0.00 91 1016.5
20260502065012 12 333 4.8 16.1 0.00 9.19 0.00 91 1016.5
20260502064524 12 360 4.8 12.9 0.00 9.19 0.00 91 1016.5
20260502064007 12 5 3.2 17.7 0.00 9.19 0.00 91 1016.6
20260502063510 12 360 4.8 17.7 0.00 9.19 0.00 91 1016.5
20260502063010 12 37 3.2 20.9 0.00 9.19 0.00 92 1016.4
20260502062505 12 360 8.0 20.9 0.00 9.19 0.00 91 1016.4
20260502062009 12 332 6.4 19.3 0.00 9.19 0.00 92 1016.3
20260502061504 12 337 6.4 19.3 0.00 9.19 0.00 92 1016.2
20260502061003 12 360 8.0 16.1 0.00 9.19 0.00 92 1016.2
20260502060503 12 5 3.2 20.9 0.00 9.19 0.00 92 1016.2
20260502060005 12 20 6.4 20.9 0.00 9.19 0.00 92 1016.2
20260502055503 12 324 8.0 20.9 0.00 9.32 0.00 92 1016.2
20260502055003 12 347 8.0 19.3 0.00 9.32 0.00 92 1016.1
20260502054502 12 5 4.8 16.1 0.00 9.32 0.00 92 1016.2
20260502054004 12 20 4.8 12.9 0.00 9.32 0.00 93 1016.2
20260502053501 12 30 4.8 22.5 0.00 9.32 0.00 93 1016.2
20260502053108 12 355 4.8 22.5 0.00 9.32 0.00 93 1016.2
20260502052559 12 327 8.0 19.3 0.00 9.32 0.00 93 1016.2
20260502052102 12 28 4.8 19.3 0.00 9.32 0.00 92 1016.0
20260502051603 12 36 6.4 20.9 0.00 9.32 0.00 93 1016.0
20260502051057 12 55 6.4 20.9 0.00 9.32 0.00 93 1016.1
20260502050559 12 5 9.7 19.3 0.00 9.32 0.00 93 1015.9
20260502050059 12 28 8.0 22.5 0.00 9.32 0.00 93 1015.8
20260502045555 12 5 8.0 22.5 0.00 9.65 9.32 93 1015.8
20260502045057 12 43 3.2 19.3 0.00 9.65 9.32 93 1015.8
20260502044557 12 11 4.8 19.3 0.00 9.65 9.32 93 1015.7
20260502044054 12 17 6.4 20.9 0.00 9.65 9.32 93 1015.7
20260502043554 12 349 6.4 20.9 0.00 9.65 9.32 93 1015.6
20260502043100 12 34 6.4 19.3 0.00 9.65 9.32 93 1015.8
20260502042553 12 5 6.4 19.3 0.00 9.65 9.32 93 1016.0
20260502042053 12 360 8.0 19.3 0.00 9.65 9.32 93 1016.1
20260502041553 12 14 4.8 19.3 0.00 9.65 9.32 93 1016.1
20260502041055 12 335 4.8 19.3 0.00 9.65 9.32 93 1016.0
20260502040550 12 13 8.0 19.3 0.00 9.65 9.32 93 1015.9
20260502040051 12 19 8.0 22.5 0.00 9.65 9.32 93 1015.8
20260502035552 12 65 6.4 22.5 0.00 9.65 9.32 93 1015.8
20260502035050 12 360 8.0 22.5 0.00 9.65 9.32 93 1015.8
20260502034550 12 5 6.4 20.9 0.00 9.65 9.32 93 1016.0
20260502034049 12 5 8.0 17.7 0.00 9.65 9.32 93 1015.9
20260502033548 12 336 6.4 14.5 0.00 9.65 9.32 93 1015.8
20260502033053 12 321 6.4 17.7 0.00 9.65 9.32 94 1015.7
20260502032545 12 42 6.4 19.3 0.00 9.65 9.32 94 1015.4
20260502032046 12 36 8.0 20.9 0.00 9.65 9.32 94 1015.4
20260502031546 12 342 9.7 25.7 0.00 9.65 9.32 94 1015.4
20260502031044 13 321 9.7 25.7 0.00 9.65 9.32 94 1015.3
20260502030541 13 321 9.7 20.9 0.00 9.65 9.32 94 1015.1
20260502030042 13 23 9.7 20.9 0.00 9.65 9.32 94 1015.0
20260502025541 13 360 8.0 22.5 0.03 9.65 9.32 94 1014.8
20260502025039 13 346 4.8 25.7 0.03 9.65 9.32 94 1014.5
20260502024538 13 20 6.4 25.7 0.05 9.65 9.32 94 1014.2
20260502024038 13 355 9.7 22.5 0.08 9.65 9.32 94 1014.2
20260502023537 13 15 9.7 22.5 0.08 9.65 9.32 93 1014.3
20260502023036 13 26 8.0 20.9 0.10 9.65 9.32 93 1014.1
20260502022535 13 342 11.3 24.1 0.10 9.65 9.32 94 1014.1
20260502022033 13 332 12.9 24.1 0.10 9.65 9.32 93 1014.2
20260502021534 13 19 8.0 17.7 0.13 9.65 9.32 94 1014.0
20260502021032 13 20 4.8 17.7 0.13 9.65 9.32 94 1013.6
20260502020556 13 343 9.7 20.9 0.13 9.65 9.32 94 1013.8
20260502020031 13 355 9.7 20.9 0.15 9.65 9.32 94 1014.0
20260502015530 13 348 6.4 22.5 0.15 9.63 9.30 94 1013.9
20260502015031 14 355 9.7 20.9 0.20 9.63 9.30 94 1013.7
20260502014532 14 355 6.4 20.9 0.20 9.60 9.27 94 1013.3
20260502014028 14 321 6.4 19.3 0.18 9.58 9.25 94 1013.6
20260502013528 14 355 6.4 19.3 0.18 9.58 9.25 94 1013.6
20260502013027 14 347 8.0 19.3 0.18 9.55 9.22 94 1013.5
20260502012527 14 355 6.4 14.5 0.18 9.55 9.22 94 1013.4
20260502012027 14 324 4.8 17.7 0.20 9.55 9.22 94 1013.3
20260502011547 14 9 9.7 17.7 0.20 9.53 9.19 94 1013.1
20260502011027 14 337 8.0 17.7 0.23 9.53 9.19 94 1013.0
20260502010526 14 355 4.8 19.3 0.25 9.53 9.19 94 1012.8
20260502010026 14 360 8.0 20.9 0.25 9.50 9.17 94 1012.7
20260502005525 14 22 4.8 25.7 0.25 9.47 9.14 94 1012.8
20260502005024 14 18 11.3 25.7 0.23 9.42 9.09 94 1013.2
20260502004533 14 360 6.4 16.1 0.25 9.40 9.07 94 1013.6
20260502004022 14 304 4.8 17.7 0.28 9.40 9.07 94 1013.2
20260502003524 14 348 4.8 19.3 0.30 9.40 9.07 94 1012.7
20260502003025 14 332 8.0 19.3 0.28 9.37 9.04 94 1012.3
20260502002521 14 355 3.2 19.3 0.28 9.37 9.04 94 1011.9
20260502002023 14 360 9.7 19.3 0.25 9.35 9.02 94 1011.9
20260502001520 15 350 6.4 17.7 0.23 9.32 8.99 94 1012.1
20260502001023 15 323 6.4 19.3 0.23 9.30 8.97 94 1012.3
20260502000519 15 5 6.4 19.3 0.25 9.27 8.94 93 1012.1
20260502000019 15 22 6.4 17.7 0.28 9.25 8.92 93 1012.2
20260501235523 15 18 6.4 17.7 0.38 9.22 8.89 93 1012.3
20260501235018 15 280 8.0 17.7 0.38 9.17 8.84 93 1011.9
20260501234517 15 19 6.4 19.3 0.41 9.14 8.81 93 1012.6
20260501234016 15 316 4.8 19.3 0.38 9.12 8.79 93 1013.0
20260501233516 15 350 4.8 16.1 0.36 9.09 8.76 93 1012.5
20260501233016 15 26 6.4 20.9 0.36 9.09 8.76 93 1011.9
20260501232516 15 336 6.4 20.9 0.36 9.09 8.76 93 1010.8
20260501232018 15 52 4.8 19.3 0.36 9.09 8.76 93 1010.5
20260501231525 15 355 4.8 20.9 0.36 9.09 8.76 93 1010.5
20260501231014 15 89 9.7 20.9 0.33 9.07 8.74 93 1010.3
20260501230514 15 93 3.2 19.3 0.28 9.02 8.69 93 1011.3
20260501230013 15 19 9.7 22.5 0.23 8.97 8.64 93 1011.1
20260501225513 15 66 6.4 22.5 0.10 8.84 8.51 93 1011.3
20260501225014 15 5 8.0 22.5 0.05 8.79 8.46 93 1011.8
20260501224510 15 27 6.4 22.5 0.00 8.74 8.41 93 1010.9
20260501224010 15 95 6.4 19.3 0.00 8.74 8.41 94 1010.6
20260501223509 15 24 4.8 24.1 0.00 8.74 8.41 94 1010.5
20260501223008 15 60 8.0 24.1 0.00 8.74 8.41 94 1010.2
20260501222509 15 78 4.8 16.1 0.03 8.74 8.41 94 1010.3
20260501222007 16 355 4.8 20.9 0.08 8.74 8.41 94 1010.3
20260501221507 16 38 6.4 20.9 0.18 8.74 8.41 94 1010.1
20260501221006 16 57 3.2 14.5 0.25 8.74 8.41 94 1010.1
20260501220507 16 25 6.4 19.3 0.28 8.74 8.41 94 1010.2
20260501220107 16 355 6.4 20.9 0.30 8.74 8.41 94 1010.5
20260501215510 16 340 9.7 22.5 0.30 8.74 8.41 94 1010.5
20260501215008 16 331 11.3 22.5 0.33 8.74 8.41 94 1010.7
20260501214508 16 360 8.0 17.7 0.33 8.74 8.41 94 1010.8
20260501214006 16 19 6.4 19.3 0.36 8.74 8.41 94 1011.0
20260501213502 16 355 6.4 19.3 0.36 8.74 8.41 94 1010.7
20260501213001 16 19 6.4 16.1 0.41 8.74 8.41 94 1011.1
20260501212501 16 348 3.2 14.5 0.43 8.71 8.38 94 1011.1
20260501212001 16 305 4.8 14.5 0.51 8.64 8.31 94 1011.2
20260501211501 16 9 3.2 8.0 0.56 8.56 8.23 94 1011.0
20260501211100 16 330 1.6 8.0 0.51 8.48 8.15 95 1011.0
20260501210600 16 36 3.2 16.1 0.58 8.46 8.13 94 1011.1
20260501210101 16 18 1.6 19.3 0.71 8.43 8.10 94 1010.8
20260501205600 16 360 6.4 24.1 0.71 8.43 8.10 94 1010.0
20260501205100 16 345 9.7 24.1 0.71 8.41 8.08 94 1009.3
20260501204559 16 34 6.4 20.9 0.71 8.41 8.08 94 1009.6
20260501204101 16 5 8.0 20.9 0.71 8.38 8.05 94 1009.9
20260501203600 16 75 4.8 20.9 0.81 8.38 8.05 94 1009.6
20260501203058 16 346 9.7 20.9 0.81 8.36 8.03 94 1009.7
20260501202557 16 319 4.8 14.5 0.79 8.31 7.98 94 1009.7
20260501202057 16 99 6.4 14.5 0.71 8.15 7.82 94 1009.6
20260501201556 16 16 1.6 9.7 0.69 8.00 7.67 94 1010.3
20260501201056 16 70 1.6 9.7 0.84 7.98 7.65 94 1010.0
20260501200555 16 17 4.8 12.9 0.71 7.85 7.52 94 1009.7
20260501200056 16 9 3.2 12.9 0.71 7.72 7.39 94 1010.0
20260501195555 16 51 3.2 9.7 0.91 7.67 7.34 94 1009.4
20260501195055 16 347 4.8 9.7 0.94 7.67 7.34 94 1009.1
20260501194555 16 351 3.2 9.7 0.97 7.67 7.34 94 1009.1
20260501194054 16 36 4.8 14.5 0.94 7.65 7.32 94 1009.1
20260501193554 16 60 1.6 14.5 0.84 7.54 7.21 94 1009.2
20260501193053 16 350 6.4 14.5 0.84 7.54 7.21 94 1009.4
20260501192554 16 27 4.8 14.5 0.84 7.52 7.19 94 1009.1
20260501192054 16 103 3.2 9.7 0.84 7.37 7.04 94 1009.1
20260501191553 16 5 4.8 14.5 1.52 7.32 6.99 94 1009.6
20260501191054 16 109 4.8 19.3 1.42 7.14 6.81 94 1009.8
20260501190552 16 28 3.2 19.3 1.42 7.11 6.78 94 1009.8
20260501190111 16 14 4.8 12.9 1.24 6.91 6.58 94 1009.4
20260501185552 16 5 3.2 17.7 1.14 6.76 6.40 94 1010.2
20260501185052 16 36 4.8 17.7 1.35 6.73 6.40 94 1009.9
20260501184553 16 105 4.8 14.5 1.60 6.71 6.35 94 1009.1
20260501184052 16 76 4.8 14.5 1.93 6.71 6.35 94 1009.6
20260501183552 16 105 4.8 16.1 2.16 6.71 6.35 94 1009.7
20260501183053 16 59 4.8 16.1 2.21 6.71 6.35 94 1009.1
20260501182551 16 85 6.4 16.1 2.21 6.65 6.32 94 1008.9
20260501182049 16 55 4.8 16.1 2.41 6.45 6.15 94 1008.7
20260501181549 16 79 3.2 9.7 1.83 5.71 5.41 94 1010.0
20260501181049 16 117 3.2 17.7 1.80 5.69 5.36 94 1010.6
20260501180549 16 65 4.8 19.3 1.80 5.69 5.36 94 1009.0
20260501180048 16 50 6.4 19.3 1.80 5.66 5.33 94 1008.5
20260501175549 16 26 3.2 12.9 1.73 5.59 5.23 94 1009.0
20260501175047 16 91 4.8 14.5 1.50 5.36 5.03 94 1009.3
20260501174549 16 45 3.2 11.3 1.19 5.05 4.72 94 1009.5
20260501174047 16 96 3.2 12.9 0.86 4.72 4.39 94 1010.4
20260501173547 16 5 4.8 16.1 0.71 4.55 4.22 94 1010.7